Regional Weather Roundup
Issued by NWS

Home | Current Version | Previous Version | Text Only | Print | Product List | Glossary On
Versions: 1 2 3 4 5 6 7 8 9 10 11 12 13 14 15 16 17 18 19 20 21 22 23 24 25 26 27 28 29 30 31 32 33 34 35 36 37 38 39 40 41 42 43 44 45 46 47 48 49 50
000
ASUS43 KDTX 271901
RWRMI
MICHIGAN HOURLY REGIONAL WEATHER ROUNDUP
NATIONAL WEATHER SERVICE DETROIT/PONTIAC MI
200 PM EST THU NOV 27 2014

NOTE: "FAIR" INDICATES FEW OR NO CLOUDS BELOW 12,000 FEET WITH NO
SIGNIFICANT WEATHER AND/OR OBSTRUCTION TO VISIBILITY.

MIZ047>049-052>055-059>063-066>070-074>076-081>083-272000-
SOUTHEAST LOWER MICHIGAN

CITY           SKY/WX    TMP DP  RH WIND       PRES   REMARKS
ADRIAN         CLOUDY    32  24  72 W9        30.18S WCI  24
ALMA           CLOUDY    29  19  68 NW12      30.19S WCI  19
ANN ARBOR      CLOUDY    33  21  61 W12       30.15R WCI  24
BAD AXE        LGT SNOW  27  25  92 NW20      30.14R WCI  14
CARO           CLOUDY    28  23  80 NW15G22   30.15R WCI  17
DETROIT CITY   CLOUDY    36  21  54 NW10G18   30.14S WCI  28
DETROIT        PTSUNNY   34  22  61 W14G20    30.16R WCI  25
FLINT          CLOUDY    32  22  66 NW10      30.16R WCI  24
GROSSE ILE     CLOUDY    36  23  60 W9        30.14R WCI  29
HILLSDALE      FLURRIES  33  26  76 W8G16     30.15R WCI  26
HOWELL         CLOUDY    30  24  77 NW9       30.15S WCI  22

CITY           SKY/WX    TMP DP  RH WIND       PRES   REMARKS
JACKSON        LGT SNOW  30  25  81 NW6       30.16R WCI  24
LAMBERTVILLE   CLOUDY    34  27  75 W10G17    30.18S WCI  26
LANSING        CLOUDY    30  21  69 NW7       30.18R WCI  23
LAPEER         FLURRIES  30  25  80 NW8       30.14R WCI  23
MASON          CLOUDY    31  24  75 NW10      30.16S WCI  22
MONROE         CLOUDY    34  25  69 W14       30.15R WCI  24
MT. CLEMENS    CLOUDY    33  23  66 NW10G20   30.12R WCI  25
PONTIAC        CLOUDY    30  20  66 NW13      30.13R WCI  20
PORT HOPE        N/A     28  24  85 NW10G24   30.11R WCI  19
PORT HURON     CLOUDY    32  25  74 NW10G16   30.13R WCI  24
TRI CITIES     CLOUDY    30  20  66 NW15      30.18R WCI  19
TROY           CLOUDY    34  22  61 NW9G18    30.16R WCI  26
SAGINAW HB     CLOUDY    30  23  74 NW16      30.17R WCI  19
$$
MIZ043>046-050>051-056>058-064>065-071>073-077>080-272000-
SOUTHWEST LOWER MICHIGAN

CITY           SKY/WX    TMP DP  RH WIND       PRES   REMARKS
BATTLE CREEK   CLOUDY    32  25  75 NW15      30.18R WCI  22
BENTON HARBOR  LGT SNOW  29  24  82 NW16G30   30.26S WCI  17
BIG RAPIDS     LGT SNOW  24  20  85 NW10G20   30.20R WCI  14
COLDWATER      CLOUDY    33  30  88 W12       30.17S WCI  24
FREMONT        CLOUDY    24  17  76 N20G25    30.24R WCI   9
HOLLAND        CLOUDY    29  22  75 NW14      30.24S WCI  18
GRAND RAPIDS   CLOUDY    30  21  69 NW15      30.20R WCI  19
IONIA          CLOUDY    30  24  77 N7        30.18R WCI  24
KALAMAZOO      LGT SNOW  31  27  85 NW12      30.20R FOG     WCI  22
LUDINGTON      CLOUDY    22  15  74 N15G21    30.29S WCI   9
MARSHALL       LGT SNOW  31  28  90 NW6       30.15S WCI  25
MOUNT PLEASANT CLOUDY    28  18  65 NW8       30.19S WCI  20
MUSKEGON       FLURRIES  26  17  68 N17       30.27R WCI  13
SOUTH HAVEN    FLURRIES  31  26  79 NW20G28   30.24S WCI  19
$$
MIZ016>042-272000-
NORTHERN LOWER MICHIGAN

CITY           SKY/WX    TMP DP  RH WIND       PRES   REMARKS
ALPENA         PTSUNNY   22  12  65 NW10G23   30.17R WCI  11
BEAVER ISLAND  LGT SNOW  20  15  79 N10G17    30.23F VSB 1   WCI   9
BELLAIRE       LGT SNOW  23  16  75 NW6       30.23F WCI  15
CADILLAC       CLOUDY    21  13  72 NW12G17   30.18R WCI   9
CHARLEVOIX     CLOUDY    21  12  66 NW13G18   30.25S WCI   9
FRANKFORT      CLOUDY    22  14  72 NW9G16    30.28R WCI  12
GAYLORD        CLOUDY    20  11  68 NW8       30.15S WCI  10
GRAYLING       MOSUNNY   21  13  71 NW12      30.17S WCI   9
HARBOR SPRINGS PTSUNNY   21  10  62 W13G20    30.21S WCI   9
HOUGHTON LAKE  FLURRIES  23  15  71 NW16      30.17R WCI  10
MANISTEE       CLOUDY    21  12  68 NW10G16   30.28R WCI  10
OSCODA         PTSUNNY   26  17  71 NW17      30.15R WCI  12
PELLSTON       CLOUDY    20   9  62 NW14      30.21S WCI   7
ROGERS CITY    MOSUNNY   22  16  76 W14G21    30.18S WCI   9
TRAVERSE CITY  FLURRIES  23  13  65 NW13      30.24R WCI  11
$$
MIZ007>008-015-272000-
EASTERN UPPER MICHIGAN

CITY           SKY/WX    TMP DP  RH WIND       PRES   REMARKS
KINROSS        CLOUDY    19  16  86 NW16      30.17R WCI   5
MACKINAC ISLAN PTSUNNY   20   9  63 NW13G21   30.20R WCI   7
NEWBERRY       LGT SNOW  16  13  89 NW8       30.21S VSB 3/4 WCI   5
S. S. MARIE    LGT SNOW  18  10  71 NW15G22   30.19R WCI   4
MUNISING         N/A     22  10  60 N21G29    30.27F WCI   6
$$
MIZ004>006-011>014-085-272000-
CENTRAL UPPER MICHIGAN

CITY           SKY/WX    TMP DP  RH WIND       PRES   REMARKS
MANISTIQUE     FLURRIES  18  11  75 NW16G23   30.25S WCI   3
ESCANABA       SUNNY     18   1  49 NW14G21   30.29F WCI   4
MENOMINEE      SUNNY     16   3  57 N9G17     30.32F WCI   4
SAWYER-GWINN   PTSUNNY   12   1  62 NW14      30.26F WCI  -3
$$
MIZ001>003-009>011-084-272000-
WESTERN UPPER MICHIGAN

CITY           SKY/WX    TMP DP  RH WIND       PRES   REMARKS
IRON MOUNTAIN  SUNNY     12  -1  56 NW15      30.28F WCI  -4
HOUGHTON       LGT SNOW  10   3  73 N6        30.31S WCI   0
COPPER HARBOR    N/A     15   8  73 N16G24    30.33S WCI  -1
IRONWOOD       CLOUDY    10   7  85 W8        30.32F WCI  -1
$$

ABBREVIATIONS USED IN REMARKS
   TC - TEMPERATURE IN CELSIUS
  WCI - WIND CHILL INDEX
   HX - HEAT INDEX
  VSB - VISIBILITY



USA.gov is the U.S. government's official web portal to all federal, state and local government web resources and services.